Location: Katzenstein
(51.7484°N, 10.2155°E)
Time: 10:12:07
(UTC+00:00)

Cosmos 2173 Rocket - Pass Details

Date: 17 February 2020
Orbit: 944 x 1002 km, 83.0° (Epoch: 04 April)

Event Time Altitude Azimuth Distance (km) Brightness Sun altitude
Rises 04:39:13 0° 349° (N) 3,727 7.0 -17.9°
Reaches altitude 10° 04:41:46 10° 350° (N) 2,767 6.3 -17.5°
Maximum altitude 04:48:08 89° 78° (ENE) 990 4.0 -16.5°
Drops below altitude 10° 04:54:22 10° 172° (S) 2,710 6.4 -15.5°
Sets 04:56:51 0° 172° (S) 3,644 7.1 -15.1°
